NOAA 16 DEB

Satellite information

Favourite Embed

Satellite Type and Status

DEBRISIN ORBIT

Key statistics

Satellite NOAA 16 DEB at a glance.

Uptime

9113

Days in orbit

Revolutions

≈ 14.2

Per day

Orbit

SSO

Sun Synchronous Orbit

Inclination

98.7

Latest

Satellite identification and parameters

Extended collection of information and parameters for NOAA 16 DEB.

Object identification

Identified? True

Debris? True

Object name: NOAA 16 DEB

International designator: 2000-055DP

Object number (NORAD): 41210

Object ID (CCSDS): 41210

Country: UNITED STATES OF AMERICA (US)

Current information (Y/N): Y

RCS size: SMALL

Orbital parameters

Period: 101.415 minutes

Inclination: 98.6992 deg

SMA: 7203.816 km

Apoapsis: 841.907 km

Periapsis: 809.455 km

RAAN: 295.8739 deg

Eccentricy: 0.00225243

Argument of periapsis: 238.5366 deg

Mean anomaly: 121.3609 deg

Mean motion: 14.19903573 rev/day

Mean motion (dot): 0.00003812 rev/day2

B* drag term: 0.0018106933 1/REarth

Two-line elements (TLE)

Creation date: Aug. 31, 2025, 2:26 a.m.

Reference frame: TEME

Reference center: EARTH

Epoch: Aug. 30, 2025, 9:48 p.m. UTC

TLE line 0: 0 NOAA 16 DEB

TLE line 1: 1 41210U 00055DP 25242.90875583 .00003812 00000-0 18107-2 0 9991

TLE line 2: 2 41210 98.6992 295.8739 0022524 238.5366 121.3609 14.19903573501554

Live tracking on map

Real-time ground track for satellite NOAA 16 DEB.

In-orbit conjunctions

A list of the most updated potential collisions computed for object NOAA 16 DEB.

Target Orbit TCA Probability of collision Miss distance Type
SSU 2 LEO 2025-05-21 14:01:42 0.0002550251 676.0 (m) PAYLOAD
SL-3 R/B LEO 2025-01-18 13:22:03 0.0002325366 686.0 (m) ROCKET BODY
CZ-6A DEB SSO 2024-11-16 07:43:00 0.0002379749 779.0 (m) DEBRIS
METEOR 2-8 DEB LEO 2024-07-06 10:47:45 0.0002368188 115.0 (m) DEBRIS

Associated space launch

The NOAA K, L and M POES satellites begin the fifth generation of improved environmental monitoring in support of NOAA missions. The instrument payload has significant improvements and additions/deletions. The instrument changes have effected the spacecraft subsystems and data formats.

NOAA 16 DEB was lifted into orbit during the mission ‘Titan II SLV | NOAA 16’, on board a Titan II SLV space rocket.

The launch took place on Sept. 21, 2000, 10:22 a.m. from Space Launch Complex 4W.

For more information about the launch, click the button.

Launch to space Titan II SLV | NOAA 16
Titan II SLV | NOAA 16

Agency: N/A

Status: Launch Successful

Launch date: Sept. 21, 2000, 10:22 a.m. UTC

Rocket: Titan II SLV

Launch pad: Space Launch Complex 4W

Location: Vandenberg SFB, CA, USA

...

Latest news about this satellite

There are no fresh news available about this satellite. Check back as we update our databases every day.


Newsletter sign-up

Weekly statistics, charts and insights to help you stay on top of the space industry.